[[{"header":{"parameterUnit":"m.s-1","parameterCategory":1,"la1":30.2992,"la2":30.254,"lo1":-89.0895,"lo2":-89.0443,"dy":0.0025,"dx":0.0025,"nx":19,"ny":19,"refTime":"2026-05-18T21:00:00:Z","depth":0,"parameterNumber":2,"parameterNumberName":"U-component_of_WINDS"},"data":[0,0,0,-4.4826,-4.4829,-4.4977,-4.4978,-4.5168,-4.517,0,0,0,0,0,0,0,0,0,0,0,-4.4784,-4.4785,-4.4826,-4.4829,-4.4977,-4.4978,-4.5168,-4.517,0,0,0,0,0,0,0,0,0,0,0,-4.4783,-4.4785,-4.4787,-4.483,-4.4977,-4.4978,-4.5167,-4.5055,0,0,0,0,0,0,0,0,0,0,-4.4911,-4.4874,-4.4784,-4.4787,-4.4831,-4.4977,-4.4978,-4.505,-4.5062,-4.5102,0,-4.5139,0,-4.5158,-4.5183,-4.5183,0,0,0,-4.4828,-4.4864,-4.4902,-4.4787,-4.4832,-4.4977,-4.491,-4.5057,-4.5071,-4.5119,-4.5141,-4.5148,-4.5161,-4.5184,-4.5185,-4.5423,-4.5424,0,0,-4.482,-4.4811,-4.4893,-4.4912,-4.489,-4.4905,-4.4915,-4.5065,-4.5089,-4.5142,-4.5153,-4.5164,-4.5185,-4.5187,-4.5421,-4.5423,0,0,0,-4.4797,-4.4805,-4.484,-4.4904,-4.493,-4.491,-4.492,-4.5082,-4.5094,-4.5155,-4.5166,-4.5186,-4.5189,-4.542,-4.5422,-4.5471,0,0,0,-4.4792,-4.4792,-4.4837,-4.4833,-4.4928,-4.5008,-4.4934,-4.5084,-4.5101,-4.5165,-4.5186,-4.5191,-4.5419,-4.5421,-4.5466,-4.5494,0,0,0,-4.4774,-4.479,-4.4812,-4.4832,-4.4895,-4.5006,-4.5027,-4.5088,-4.5108,-4.5184,-4.5191,-4.5418,-4.5421,-4.5463,-4.5488,-4.5552,0,0,0,-4.4751,-4.4853,-4.4813,-4.4932,-4.4894,-4.5036,-4.5026,-4.5132,-4.5203,-4.5187,-4.5419,-4.5422,-4.5462,-4.5484,-4.5548,-4.5603,-4.5626,0,0,-4.4875,-4.4868,-4.4939,-4.4907,-4.5054,-4.5014,-4.5169,-4.5241,-4.5257,-4.5366,-4.5372,-4.5468,-4.5487,-4.5552,-4.5762,-4.578,0,0,0,-4.4975,-4.5025,-4.5067,-4.5134,-4.5193,-4.5245,-4.5296,-4.5323,-4.5417,-4.5311,-4.551,-4.5522,-4.556,-4.5587,-4.5602,-4.5634,-4.5434,-4.5434,-4.5434,-4.5135,-4.5151,-4.5269,-4.5302,-4.5368,-4.542,-4.5474,-4.5519,-4.5515,-4.5562,-4.5593,-4.5719,-4.575,-4.5761,-4.5795,-4.5626,-4.5626,-4.5626,-4.5626,-4.5317,-4.5389,-4.5384,-4.5495,-4.5511,-4.5604,-4.5659,-4.5653,-4.5742,-4.5696,-4.573,-4.5676,-4.578,-4.581,-4.563,-4.563,-4.5629,-4.5629,-4.5628,-4.5421,-4.5458,-4.5491,-4.5591,-4.5666,-4.5697,-4.5783,-4.5795,-4.5806,-4.584,-4.5874,-4.5873,-4.5871,-4.5856,-4.5857,-4.5857,-4.5858,-4.5858,-4.5858,-4.5514,-4.555,-4.5621,-4.5695,-4.574,-4.5801,-4.5856,-4.5901,-4.5953,-4.5954,-4.5954,-4.5944,-4.5789,-4.5748,-4.5865,-4.5864,-4.5863,-4.5862,-4.5862,-4.5687,-4.565,-4.576,-4.5806,-4.5892,-4.5966,-4.5982,-4.6072,-4.6111,-4.6152,-4.6137,-4.6021,-4.6014,-4.6002,-4.5968,-4.6134,-4.6134,-4.6134,-4.6134,-4.5772,-4.5771,-4.5886,-4.5958,-4.603,-4.6056,-4.6179,-4.6224,-4.6264,-4.6289,-4.6268,-4.6225,-4.6212,-4.6212,-4.6195,-4.6164,-4.6376,-4.6377,-4.6377,-4.5878,-4.5885,-4.5987,-4.6027,-4.6096,-4.6155,-4.6271,-4.6354,-4.6392,-4.6387,-4.6308,-4.6298,-4.6229,-4.6206,-4.6194,-4.6169,-4.611,0,0]},{"header":{"parameterUnit":"m.s-1","parameterCategory":1,"la1":30.2992,"la2":30.254,"lo1":-89.0895,"lo2":-89.0443,"dy":0.0025,"dx":0.0025,"nx":19,"ny":19,"refTime":"2026-05-18T21:00:00:Z","depth":0,"parameterNumber":3,"parameterNumberName":"V-component_of_WINDS"},"data":[0,0,0,3.4477,3.4478,3.4539,3.454,3.462,3.4621,0,0,0,0,0,0,0,0,0,0,0,3.4461,3.4462,3.4477,3.4478,3.4539,3.454,3.462,3.4621,0,0,0,0,0,0,0,0,0,0,0,3.4461,3.4462,3.4463,3.4479,3.4539,3.454,3.462,3.4572,0,0,0,0,0,0,0,0,0,0,3.4512,3.4501,3.4462,3.4463,3.4479,3.4539,3.454,3.457,3.4575,3.4594,0,3.4612,0,3.4618,3.4626,3.4627,0,0,0,3.4476,3.4497,3.4511,3.4463,3.448,3.4539,3.4511,3.4573,3.4579,3.4601,3.4613,3.4616,3.4619,3.4627,3.4627,3.4747,3.4747,0,0,3.4472,3.4473,3.4507,3.4515,3.4508,3.4509,3.4513,3.4576,3.4589,3.4613,3.4618,3.4621,3.4627,3.4628,3.4746,3.4747,0,0,0,3.4465,3.4471,3.4484,3.4512,3.4523,3.4511,3.4515,3.4586,3.4591,3.4619,3.4621,3.4628,3.4629,3.4745,3.4746,3.4782,0,0,0,3.4462,3.4466,3.4482,3.4483,3.4522,3.4556,3.4524,3.4586,3.4593,3.4621,3.4628,3.463,3.4745,3.4746,3.4779,3.4798,0,0,0,3.4456,3.4465,3.4476,3.4483,3.451,3.4555,3.4563,3.4588,3.4595,3.4627,3.463,3.4744,3.4746,3.4777,3.4794,3.4831,0,0,0,3.445,3.4504,3.4476,3.4538,3.4509,3.4577,3.4562,3.4612,3.4643,3.4628,3.4745,3.4746,3.4776,3.4792,3.4828,3.4861,3.4876,0,0,3.4518,3.4512,3.4549,3.4526,3.4599,3.4567,3.4645,3.4671,3.4672,3.4722,3.4724,3.478,3.4794,3.483,3.4954,3.4965,0,0,0,3.4571,3.4597,3.4616,3.4647,3.4671,3.4692,3.4708,3.4718,3.476,3.4699,3.4803,3.4811,3.4832,3.4848,3.4858,3.4876,3.4754,3.4753,3.4753,3.4667,3.4669,3.473,3.4739,3.477,3.4787,3.4811,3.4827,3.4817,3.4842,3.4857,3.4932,3.4951,3.4958,3.4977,3.4874,3.4874,3.4875,3.4875,3.4768,3.4806,3.4795,3.4851,3.4852,3.4897,3.4916,3.4909,3.4951,3.492,3.4939,3.4906,3.497,3.4987,3.4877,3.4877,3.4877,3.4876,3.4876,3.4831,3.485,3.4864,3.4911,3.4947,3.4954,3.4997,3.4996,3.4994,3.5013,3.5029,3.5028,3.5027,3.5021,3.5021,3.5021,3.5021,3.5022,3.5022,3.4891,3.4906,3.4943,3.4976,3.4997,3.5025,3.5044,3.5064,3.5086,3.5082,3.5082,3.507,3.4977,3.4953,3.5026,3.5025,3.5025,3.5024,3.5024,3.4993,3.4971,3.5028,3.505,3.5089,3.5126,3.5125,3.5167,3.5183,3.5205,3.519,3.5121,3.5113,3.5106,3.5086,3.5189,3.5189,3.5189,3.5189,3.5046,3.5044,3.5104,3.5139,3.5173,3.5179,3.5244,3.526,3.5273,3.5284,3.5269,3.5243,3.5235,3.5232,3.5222,3.5204,3.5334,3.5335,3.5335,3.5109,3.5111,3.5166,3.5181,3.5213,3.5239,3.53,3.534,3.535,3.5341,3.5292,3.5286,3.5244,3.5231,3.5219,3.5203,3.5169,0,0]}]]